Time,TemperatureF,DewpointF,PressureIn,WindDirection,WindDirectionDegrees,WindSpeedMPH,WindSpeedGustMPH,Humidity,HourlyPrecipIn,Conditions,Clouds,dailyrainin,SoftwareType,DateUTC
2013-08-06 00:00:00,51.6,50.5,29.88,West,273,0.0,0.0,96,0.00,,---,0.00,VWS V13.01,2013-08-06 04:00:00,
2013-08-06 00:01:00,51.6,50.5,29.88,West,273,0.0,0.0,96,0.00,,---,0.00,VWS V13.01,2013-08-06 04:01:00,
2013-08-06 00:02:00,51.6,50.5,29.88,West,273,0.0,0.0,96,0.00,,---,0.00,VWS V13.01,2013-08-06 04:02:00,
2013-08-06 00:03:00,51.7,50.6,29.88,West,273,0.0,0.0,96,0.00,,---,0.00,VWS V13.01,2013-08-06 04:03:00,
2013-08-06 00:08:00,51.5,50.4,29.88,West,273,0.0,0.0,96,0.00,,---,0.00,VWS V13.01,2013-08-06 04:08:00,
2013-08-06 00:13:00,51.4,50.3,29.88,West,273,0.0,0.0,96,0.00,,---,0.00,VWS V13.01,2013-08-06 04:13:00,
2013-08-06 00:18:00,51.2,50.1,29.88,West,273,0.0,0.0,96,0.00,,---,0.00,VWS V13.01,2013-08-06 04:18:00,
2013-08-06 00:24:00,51.3,50.2,29.88,West,273,0.0,0.0,96,0.00,,---,0.00,VWS V13.01,2013-08-06 04:24:00,
2013-08-06 00:29:00,51.1,50.0,29.88,West,273,0.0,0.0,96,0.00,,---,0.00,VWS V13.01,2013-08-06 04:29:00,
2013-08-06 00:34:00,51.0,49.9,29.89,West,273,0.0,0.0,96,0.00,,---,0.00,VWS V13.01,2013-08-06 04:34:00,
2013-08-06 00:39:00,51.0,49.9,29.88,West,273,0.0,0.0,96,0.00,,---,0.00,VWS V13.01,2013-08-06 04:39:00,
2013-08-06 00:44:00,50.8,49.7,29.88,West,273,0.0,0.0,96,0.00,,---,0.00,VWS V13.01,2013-08-06 04:44:00,
2013-08-06 00:49:00,50.5,49.4,29.88,West,273,0.0,1.0,96,0.00,,---,0.00,VWS V13.01,2013-08-06 04:49:00,
2013-08-06 00:54:00,50.3,49.2,29.88,West,273,0.0,1.0,96,0.00,,---,0.00,VWS V13.01,2013-08-06 04:54:00,
2013-08-06 00:59:00,49.9,48.8,29.88,West,273,0.0,1.0,96,0.00,,---,0.00,VWS V13.01,2013-08-06 04:59:00,
2013-08-06 01:04:00,49.6,48.5,29.88,West,273,0.0,0.0,96,0.00,,---,0.00,VWS V13.01,2013-08-06 05:04:00,
2013-08-06 01:09:00,49.4,48.3,29.88,West,273,0.0,0.0,96,0.00,,---,0.00,VWS V13.01,2013-08-06 05:09:00,
2013-08-06 01:14:00,49.4,48.3,29.89,West,273,0.0,0.0,96,0.00,,---,0.00,VWS V13.01,2013-08-06 05:14:00,
2013-08-06 01:20:00,49.2,48.1,29.89,West,273,0.0,0.0,96,0.00,,---,0.00,VWS V13.01,2013-08-06 05:20:00,
2013-08-06 01:25:00,49.2,48.1,29.89,West,273,0.0,0.0,96,0.00,,---,0.00,VWS V13.01,2013-08-06 05:25:00,
2013-08-06 01:30:00,49.0,47.9,29.88,West,273,0.0,0.0,96,0.00,,---,0.00,VWS V13.01,2013-08-06 05:30:00,
2013-08-06 01:35:00,49.2,48.1,29.89,West,273,0.0,0.0,96,0.00,,---,0.00,VWS V13.01,2013-08-06 05:35:00,
2013-08-06 01:40:00,49.1,48.0,29.89,West,273,0.0,0.0,96,0.00,,---,0.00,VWS V13.01,2013-08-06 05:40:00,
2013-08-06 01:45:00,49.2,48.4,29.89,West,273,0.0,0.0,97,0.00,,---,0.00,VWS V13.01,2013-08-06 05:45:00,
2013-08-06 01:50:00,49.0,48.2,29.89,West,273,0.0,0.0,97,0.00,,---,0.00,VWS V13.01,2013-08-06 05:50:00,
2013-08-06 01:55:00,49.2,48.4,29.89,West,273,0.0,0.0,97,0.00,,---,0.00,VWS V13.01,2013-08-06 05:55:00,
2013-08-06 02:00:00,49.8,49.0,29.89,West,273,0.0,0.0,97,0.00,,---,0.00,VWS V13.01,2013-08-06 06:00:00,
2013-08-06 02:05:00,50.2,49.4,29.89,West,273,0.0,0.0,97,0.00,,---,0.00,VWS V13.01,2013-08-06 06:05:00,
2013-08-06 02:10:00,50.3,49.5,29.89,West,273,0.0,0.0,97,0.00,,---,0.00,VWS V13.01,2013-08-06 06:10:00,
2013-08-06 02:15:00,50.4,49.6,29.89,West,273,0.0,0.0,97,0.00,,---,0.00,VWS V13.01,2013-08-06 06:15:00,
2013-08-06 02:21:00,50.0,49.2,29.89,West,273,0.0,0.0,97,0.00,,---,0.00,VWS V13.01,2013-08-06 06:21:00,
2013-08-06 02:26:00,48.9,48.1,29.89,West,273,0.0,0.0,97,0.00,,---,0.00,VWS V13.01,2013-08-06 06:26:00,
2013-08-06 02:31:00,48.4,47.6,29.89,West,273,0.0,0.0,97,0.00,,---,0.00,VWS V13.01,2013-08-06 06:31:00,
2013-08-06 02:36:00,48.6,47.8,29.89,West,273,0.0,0.0,97,0.00,,---,0.00,VWS V13.01,2013-08-06 06:36:00,
2013-08-06 02:41:00,48.9,48.1,29.89,West,273,0.0,0.0,97,0.00,,---,0.00,VWS V13.01,2013-08-06 06:41:00,
2013-08-06 02:46:00,49.2,48.4,29.89,West,273,0.0,0.0,97,0.00,,---,0.00,VWS V13.01,2013-08-06 06:46:00,
2013-08-06 02:51:00,49.5,48.7,29.89,West,273,0.0,0.0,97,0.00,,---,0.00,VWS V13.01,2013-08-06 06:51:00,
2013-08-06 02:56:00,49.8,49.0,29.89,West,273,0.0,0.0,97,0.00,,---,0.00,VWS V13.01,2013-08-06 06:56:00,
2013-08-06 03:01:00,50.2,49.4,29.89,West,273,0.0,0.0,97,0.00,,---,0.00,VWS V13.01,2013-08-06 07:01:00,
2013-08-06 03:06:00,50.3,49.8,29.89,West,273,0.0,0.0,98,0.00,,---,0.00,VWS V13.01,2013-08-06 07:06:00,
2013-08-06 03:11:00,50.4,49.9,29.89,West,273,0.0,0.0,98,0.00,,---,0.00,VWS V13.01,2013-08-06 07:11:00,
2013-08-06 03:17:00,50.4,49.9,29.89,West,273,0.0,0.0,98,0.00,,---,0.00,VWS V13.01,2013-08-06 07:17:00,
2013-08-06 03:22:00,50.3,49.8,29.89,West,273,0.0,0.0,98,0.00,,---,0.00,VWS V13.01,2013-08-06 07:22:00,
2013-08-06 03:27:00,50.3,49.5,29.89,West,273,0.0,0.0,97,0.00,,---,0.00,VWS V13.01,2013-08-06 07:27:00,
2013-08-06 03:32:00,50.3,49.5,29.89,West,273,0.0,0.0,97,0.00,,---,0.00,VWS V13.01,2013-08-06 07:32:00,
2013-08-06 03:37:00,50.3,49.5,29.90,West,273,0.0,0.0,97,0.00,,---,0.00,VWS V13.01,2013-08-06 07:37:00,
2013-08-06 03:42:00,50.3,49.5,29.89,West,273,0.0,0.0,97,0.00,,---,0.00,VWS V13.01,2013-08-06 07:42:00,
2013-08-06 03:47:00,50.3,49.8,29.89,West,273,0.0,0.0,98,0.00,,---,0.00,VWS V13.01,2013-08-06 07:47:00,
2013-08-06 03:52:00,50.3,49.8,29.89,West,273,0.0,0.0,98,0.00,,---,0.00,VWS V13.01,2013-08-06 07:52:00,
2013-08-06 03:57:00,50.4,49.9,29.89,West,273,0.0,0.0,98,0.00,,---,0.00,VWS V13.01,2013-08-06 07:57:00,
2013-08-06 04:02:00,50.4,49.9,29.89,West,273,0.0,0.0,98,0.00,,---,0.00,VWS V13.01,2013-08-06 08:02:00,
2013-08-06 04:08:00,50.4,49.9,29.89,West,273,0.0,0.0,98,0.00,,---,0.00,VWS V13.01,2013-08-06 08:08:00,
2013-08-06 04:13:00,50.4,49.9,29.89,West,273,0.0,0.0,98,0.00,,---,0.00,VWS V13.01,2013-08-06 08:13:00,
2013-08-06 04:18:00,50.5,50.0,29.89,West,273,0.0,0.0,98,0.00,,---,0.00,VWS V13.01,2013-08-06 08:18:00,
2013-08-06 04:23:00,50.5,50.0,29.89,West,273,0.0,0.0,98,0.00,,---,0.00,VWS V13.01,2013-08-06 08:23:00,
2013-08-06 04:28:00,50.6,50.1,29.89,West,273,0.0,1.0,98,0.00,,---,0.00,VWS V13.01,2013-08-06 08:28:00,
2013-08-06 04:33:00,50.7,50.2,29.89,West,273,0.0,0.0,98,0.00,,---,0.00,VWS V13.01,2013-08-06 08:33:00,
2013-08-06 04:38:00,50.7,50.2,29.90,West,273,0.0,0.0,98,0.00,,---,0.00,VWS V13.01,2013-08-06 08:38:00,
2013-08-06 04:43:00,50.6,50.1,29.89,West,273,0.0,0.0,98,0.00,,---,0.00,VWS V13.01,2013-08-06 08:43:00,
2013-08-06 04:48:00,50.6,50.1,29.89,West,273,0.0,0.0,98,0.00,,---,0.00,VWS V13.01,2013-08-06 08:48:00,
2013-08-06 04:53:00,50.6,50.1,29.89,West,273,0.0,0.0,98,0.00,,---,0.00,VWS V13.01,2013-08-06 08:53:00,
2013-08-06 04:58:00,50.7,50.2,29.89,West,273,0.0,0.0,98,0.00,,---,0.00,VWS V13.01,2013-08-06 08:58:00,
2013-08-06 05:03:00,50.8,50.3,29.89,West,273,0.0,0.0,98,0.00,,---,0.00,VWS V13.01,2013-08-06 09:03:00,
2013-08-06 05:08:00,50.9,50.4,29.90,West,273,0.0,0.0,98,0.00,,---,0.00,VWS V13.01,2013-08-06 09:08:00,
2013-08-06 05:14:00,51.0,50.5,29.89,West,273,0.0,0.0,98,0.00,,---,0.00,VWS V13.01,2013-08-06 09:14:00,
2013-08-06 05:19:00,51.0,50.5,29.89,West,273,0.0,0.0,98,0.00,,---,0.00,VWS V13.01,2013-08-06 09:19:00,
2013-08-06 05:24:00,51.0,50.5,29.89,West,273,0.0,0.0,98,0.00,,---,0.00,VWS V13.01,2013-08-06 09:24:00,
2013-08-06 05:29:00,51.1,50.6,29.89,West,273,0.0,0.0,98,0.00,,---,0.00,VWS V13.01,2013-08-06 09:29:00,
2013-08-06 05:34:00,51.1,50.6,29.89,West,273,0.0,0.0,98,0.00,,---,0.00,VWS V13.01,2013-08-06 09:34:00,
2013-08-06 05:39:00,51.1,50.6,29.89,West,273,0.0,0.0,98,0.00,,---,0.00,VWS V13.01,2013-08-06 09:39:00,
2013-08-06 05:44:00,51.2,50.7,29.89,West,273,0.0,0.0,98,0.00,,---,0.00,VWS V13.01,2013-08-06 09:44:00,
2013-08-06 05:49:00,51.2,50.7,29.90,West,273,0.0,0.0,98,0.00,,---,0.00,VWS V13.01,2013-08-06 09:49:00,
2013-08-06 05:54:00,51.2,50.7,29.90,West,273,0.0,0.0,98,0.00,,---,0.00,VWS V13.01,2013-08-06 09:54:00,
2013-08-06 05:59:00,51.2,50.7,29.90,West,273,0.0,0.0,98,0.00,,---,0.00,VWS V13.01,2013-08-06 09:59:00,
2013-08-06 06:04:00,51.2,50.7,29.90,West,273,0.0,0.0,98,0.00,,---,0.00,VWS V13.01,2013-08-06 10:04:00,
2013-08-06 06:09:00,51.2,50.7,29.90,West,273,0.0,0.0,98,0.00,,---,0.00,VWS V13.01,2013-08-06 10:09:00,
2013-08-06 06:15:00,51.2,50.7,29.90,West,273,0.0,0.0,98,0.00,,---,0.00,VWS V13.01,2013-08-06 10:15:00,
2013-08-06 06:20:00,51.1,50.6,29.90,West,273,0.0,0.0,98,0.00,,---,0.00,VWS V13.01,2013-08-06 10:20:00,
2013-08-06 06:25:00,51.1,50.6,29.89,West,273,0.0,0.0,98,0.00,,---,0.00,VWS V13.01,2013-08-06 10:25:00,
2013-08-06 06:30:00,51.0,50.5,29.89,West,273,0.0,0.0,98,0.00,,---,0.00,VWS V13.01,2013-08-06 10:30:00,
2013-08-06 06:35:00,51.1,50.6,29.90,West,273,0.0,1.0,98,0.00,,---,0.00,VWS V13.01,2013-08-06 10:35:00,
2013-08-06 06:40:00,51.3,50.8,29.90,West,273,0.0,1.0,98,0.00,,---,0.00,VWS V13.01,2013-08-06 10:40:00,
2013-08-06 06:45:00,51.4,50.9,29.90,West,273,0.0,1.0,98,0.00,,---,0.00,VWS V13.01,2013-08-06 10:45:00,
2013-08-06 06:50:00,51.5,51.0,29.90,West,273,0.0,1.0,98,0.00,,---,0.00,VWS V13.01,2013-08-06 10:50:00,
2013-08-06 06:55:00,51.5,51.0,29.90,West,273,0.0,1.0,98,0.00,,---,0.00,VWS V13.01,2013-08-06 10:55:00,
2013-08-06 07:00:00,51.6,51.1,29.90,West,273,0.0,0.0,98,0.00,,---,0.00,VWS V13.01,2013-08-06 11:00:00,
2013-08-06 07:05:00,51.6,51.1,29.90,West,273,0.0,1.0,98,0.00,,---,0.00,VWS V13.01,2013-08-06 11:05:00,
2013-08-06 07:10:00,51.7,51.2,29.90,West,273,0.0,1.0,98,0.00,,---,0.00,VWS V13.01,2013-08-06 11:10:00,
2013-08-06 07:15:00,51.7,51.2,29.90,West,273,0.0,1.0,98,0.00,,---,0.00,VWS V13.01,2013-08-06 11:15:00,
2013-08-06 07:21:00,51.8,51.3,29.90,West,273,0.0,1.0,98,0.00,,---,0.00,VWS V13.01,2013-08-06 11:21:00,
2013-08-06 07:26:00,51.9,51.4,29.90,West,273,0.0,1.0,98,0.00,,---,0.00,VWS V13.01,2013-08-06 11:26:00,
2013-08-06 07:31:00,52.0,51.5,29.90,West,273,0.0,0.0,98,0.00,,---,0.00,VWS V13.01,2013-08-06 11:31:00,
2013-08-06 07:36:00,52.2,51.7,29.89,West,273,0.0,1.0,98,0.00,,---,0.00,VWS V13.01,2013-08-06 11:36:00,
2013-08-06 07:41:00,52.5,52.0,29.89,West,273,0.0,1.0,98,0.00,,---,0.00,VWS V13.01,2013-08-06 11:41:00,
2013-08-06 07:46:00,52.7,52.2,29.89,West,273,0.0,1.0,98,0.00,,---,0.00,VWS V13.01,2013-08-06 11:46:00,
2013-08-06 07:51:00,52.8,52.2,29.89,West,273,0.0,1.0,98,0.00,,---,0.00,VWS V13.01,2013-08-06 11:51:00,
2013-08-06 07:56:00,53.6,53.0,29.89,West,273,0.0,1.0,98,0.00,,---,0.00,VWS V13.01,2013-08-06 11:56:00,
2013-08-06 08:01:00,54.0,53.5,29.89,West,273,0.0,0.0,98,0.00,,---,0.00,VWS V13.01,2013-08-06 12:01:00,
2013-08-06 08:06:00,54.1,53.5,29.88,West,273,0.0,1.0,98,0.00,,---,0.00,VWS V13.01,2013-08-06 12:06:00,
2013-08-06 08:12:00,54.1,53.5,29.89,West,273,0.0,1.0,98,0.00,,---,0.00,VWS V13.01,2013-08-06 12:12:00,
2013-08-06 08:17:00,54.6,54.0,29.88,West,273,0.0,1.0,98,0.00,,---,0.00,VWS V13.01,2013-08-06 12:17:00,
2013-08-06 08:22:00,55.3,54.8,29.88,West,273,0.0,1.0,98,0.00,,---,0.00,VWS V13.01,2013-08-06 12:22:00,
2013-08-06 08:27:00,56.2,55.7,29.88,West,273,0.0,1.0,98,0.00,,---,0.00,VWS V13.01,2013-08-06 12:27:00,
2013-08-06 08:32:00,56.6,56.0,29.87,West,273,0.0,1.0,98,0.00,,---,0.00,VWS V13.01,2013-08-06 12:32:00,
2013-08-06 08:37:00,56.8,56.0,29.88,West,273,0.0,1.0,97,0.00,,---,0.00,VWS V13.01,2013-08-06 12:37:00,
2013-08-06 08:42:00,57.0,55.9,29.88,West,273,0.0,1.0,96,0.00,,---,0.00,VWS V13.01,2013-08-06 12:42:00,
2013-08-06 08:47:00,57.7,56.3,29.88,West,273,0.0,1.0,95,0.00,,---,0.00,VWS V13.01,2013-08-06 12:47:00,
2013-08-06 08:52:00,58.3,56.6,29.88,West,273,0.0,1.0,94,0.00,,---,0.00,VWS V13.01,2013-08-06 12:52:00,
2013-08-06 08:57:00,59.0,56.7,29.88,West,273,0.0,1.0,92,0.00,,---,0.00,VWS V13.01,2013-08-06 12:57:00,
2013-08-06 09:03:00,60.2,57.3,29.89,West,273,0.0,1.0,90,0.00,,---,0.00,VWS V13.01,2013-08-06 13:03:00,
2013-08-06 09:08:00,60.7,57.1,29.88,West,273,0.0,1.0,88,0.00,,---,0.00,VWS V13.01,2013-08-06 13:08:00,
2013-08-06 09:13:00,61.4,57.5,29.88,West,273,0.0,1.0,87,0.00,,---,0.00,VWS V13.01,2013-08-06 13:13:00,
2013-08-06 09:18:00,62.7,58.1,29.88,West,273,0.0,1.0,85,0.00,,---,0.00,VWS V13.01,2013-08-06 13:18:00,
2013-08-06 09:23:00,62.9,57.7,29.88,West,273,0.0,1.0,83,0.00,,---,0.00,VWS V13.01,2013-08-06 13:23:00,
2013-08-06 09:28:00,62.9,57.3,29.88,West,273,0.0,1.0,82,0.00,,---,0.00,VWS V13.01,2013-08-06 13:28:00,
2013-08-06 09:33:00,62.5,57.3,29.88,West,273,0.0,0.0,83,0.00,,---,0.00,VWS V13.01,2013-08-06 13:33:00,
2013-08-06 09:38:00,62.8,57.9,29.88,West,273,0.0,0.0,84,0.00,,---,0.00,VWS V13.01,2013-08-06 13:38:00,
2013-08-06 09:44:00,63.5,58.2,29.88,West,273,0.0,0.0,83,0.00,,---,0.00,VWS V13.01,2013-08-06 13:44:00,
2013-08-06 09:49:00,64.1,58.5,29.88,West,273,0.0,0.0,82,0.00,,---,0.00,VWS V13.01,2013-08-06 13:49:00,
2013-08-06 09:54:00,64.2,58.6,29.88,West,273,0.0,0.0,82,0.00,,---,0.00,VWS V13.01,2013-08-06 13:54:00,
2013-08-06 09:59:00,64.7,58.7,29.88,West,273,0.0,0.0,81,0.00,,---,0.00,VWS V13.01,2013-08-06 13:59:00,
2013-08-06 10:04:00,65.3,59.0,29.88,West,273,0.0,0.0,80,0.00,,---,0.00,VWS V13.01,2013-08-06 14:04:00,
2013-08-06 10:09:00,65.8,59.5,29.88,West,273,0.0,0.0,80,0.00,,---,0.00,VWS V13.01,2013-08-06 14:09:00,
2013-08-06 10:14:00,66.6,59.5,29.88,West,273,0.0,3.0,78,0.00,,---,0.00,VWS V13.01,2013-08-06 14:14:00,
2013-08-06 10:19:00,67.2,59.8,29.88,West,273,0.0,4.0,77,0.00,,---,0.00,VWS V13.01,2013-08-06 14:19:00,
2013-08-06 10:24:00,67.7,60.2,29.87,West,273,0.0,4.0,77,0.00,,---,0.00,VWS V13.01,2013-08-06 14:24:00,
2013-08-06 10:29:00,68.5,59.5,29.87,West,273,0.0,4.0,73,0.00,,---,0.00,VWS V13.01,2013-08-06 14:29:00,
2013-08-06 10:34:00,69.2,59.8,29.87,West,273,0.0,4.0,72,0.00,,---,0.00,VWS V13.01,2013-08-06 14:34:00,
2013-08-06 10:39:00,70.2,59.2,29.87,West,273,0.0,5.0,68,0.00,,---,0.00,VWS V13.01,2013-08-06 14:39:00,
2013-08-06 10:44:00,70.7,58.8,29.87,West,273,0.0,5.0,66,0.00,,---,0.00,VWS V13.01,2013-08-06 14:44:00,
2013-08-06 10:50:00,71.1,58.8,29.87,West,273,0.0,5.0,65,0.00,,---,0.00,VWS V13.01,2013-08-06 14:50:00,
2013-08-06 10:55:00,71.4,58.2,29.87,West,273,0.0,5.0,63,0.00,,---,0.00,VWS V13.01,2013-08-06 14:55:00,
2013-08-06 11:00:00,72.1,59.3,29.87,West,273,0.0,5.0,64,0.00,,---,0.00,VWS V13.01,2013-08-06 15:00:00,
2013-08-06 11:05:00,72.8,58.6,29.87,West,273,0.0,1.0,61,0.00,,---,0.00,VWS V13.01,2013-08-06 15:05:00,
2013-08-06 11:10:00,73.6,58.4,29.87,West,273,3.0,5.0,59,0.00,,---,0.00,VWS V13.01,2013-08-06 15:10:00,
2013-08-06 11:15:00,73.3,58.1,29.87,SSE,148,0.0,6.0,59,0.00,,---,0.00,VWS V13.01,2013-08-06 15:15:00,
2013-08-06 11:20:00,73.6,58.4,29.87,ESE,115,0.0,6.0,59,0.00,,---,0.00,VWS V13.01,2013-08-06 15:20:00,
2013-08-06 11:25:00,73.2,57.5,29.87,East,96,2.0,7.0,58,0.00,,---,0.00,VWS V13.01,2013-08-06 15:25:00,
2013-08-06 11:30:00,73.0,56.4,29.87,East,86,1.0,1.0,56,0.00,,---,0.00,VWS V13.01,2013-08-06 15:30:00,
2013-08-06 11:35:00,73.2,57.5,29.87,NE,47,0.0,4.0,58,0.00,,---,0.00,VWS V13.01,2013-08-06 15:35:00,
2013-08-06 11:41:00,73.9,58.7,29.86,NE,38,0.0,5.0,59,0.00,,---,0.00,VWS V13.01,2013-08-06 15:41:00,
2013-08-06 11:46:00,74.4,58.2,29.87,SE,125,0.0,5.0,57,0.00,,---,0.00,VWS V13.01,2013-08-06 15:46:00,
2013-08-06 11:51:00,74.0,56.8,29.87,SSE,161,0.0,5.0,55,0.00,,---,0.00,VWS V13.01,2013-08-06 15:51:00,
2013-08-06 11:56:00,74.2,56.0,29.87,SW,221,0.0,6.0,53,0.00,,---,0.00,VWS V13.01,2013-08-06 15:56:00,
2013-08-06 12:01:00,74.8,57.6,29.86,North,9,0.0,6.0,55,0.00,,---,0.00,VWS V13.01,2013-08-06 16:01:00,
2013-08-06 12:06:00,74.7,57.0,29.86,NNE,19,0.0,6.0,54,0.00,,---,0.00,VWS V13.01,2013-08-06 16:06:00,
2013-08-06 12:11:00,75.1,58.3,29.86,NE,38,2.0,6.0,56,0.00,,---,0.00,VWS V13.01,2013-08-06 16:11:00,
2013-08-06 12:16:00,75.4,57.1,29.86,NE,34,0.0,6.0,53,0.00,,---,0.00,VWS V13.01,2013-08-06 16:16:00,
2013-08-06 12:21:00,75.4,55.5,29.85,SSE,165,0.0,7.0,50,0.00,,---,0.00,VWS V13.01,2013-08-06 16:21:00,
2013-08-06 12:26:00,75.1,56.8,29.85,East,98,0.0,7.0,53,0.00,,---,0.00,VWS V13.01,2013-08-06 16:26:00,
2013-08-06 12:32:00,75.1,56.8,29.86,East,95,0.0,1.0,53,0.00,,---,0.00,VWS V13.01,2013-08-06 16:32:00,
2013-08-06 12:37:00,75.3,58.0,29.85,East,96,0.0,1.0,55,0.00,,---,0.00,VWS V13.01,2013-08-06 16:37:00,
2013-08-06 12:42:00,75.2,57.4,29.85,ESE,110,0.0,5.0,54,0.00,,---,0.00,VWS V13.01,2013-08-06 16:42:00,
2013-08-06 12:47:00,75.5,58.2,29.85,SE,126,0.0,10.0,55,0.00,,---,0.00,VWS V13.01,2013-08-06 16:47:00,
2013-08-06 12:52:00,75.3,57.0,29.84,ESE,118,0.0,10.0,53,0.00,,---,0.00,VWS V13.01,2013-08-06 16:52:00,
2013-08-06 12:57:00,74.7,57.0,29.84,WSW,250,5.0,10.0,54,0.00,,---,0.00,VWS V13.01,2013-08-06 16:57:00,
2013-08-06 13:02:00,74.8,57.6,29.84,WSW,242,0.0,4.0,55,0.00,,---,0.00,VWS V13.01,2013-08-06 17:02:00,
2013-08-06 13:07:00,75.2,56.4,29.84,SSE,163,2.0,7.0,52,0.00,,---,0.00,VWS V13.01,2013-08-06 17:07:00,
2013-08-06 13:12:00,75.8,57.5,29.83,ESE,111,6.0,7.0,53,0.00,,---,0.00,VWS V13.01,2013-08-06 17:12:00,
2013-08-06 13:17:00,75.4,56.6,29.83,ESE,108,4.0,9.0,52,0.00,,---,0.00,VWS V13.01,2013-08-06 17:17:00,
2013-08-06 13:22:00,75.5,58.7,29.83,SSE,150,5.0,9.0,56,0.00,,---,0.00,VWS V13.01,2013-08-06 17:22:00,
2013-08-06 13:28:00,75.7,55.8,29.83,SSE,150,0.0,9.0,50,0.00,,---,0.00,VWS V13.01,2013-08-06 17:28:00,
2013-08-06 13:33:00,75.7,57.4,29.83,East,98,0.0,5.0,53,0.00,,---,0.00,VWS V13.01,2013-08-06 17:33:00,
2013-08-06 13:34:00,75.7,57.4,29.83,East,88,3.0,5.0,53,0.00,,---,0.00,VWS V13.01,2013-08-06 17:34:00,
2013-08-06 13:39:00,76.1,58.8,29.83,East,87,0.0,5.0,55,0.00,,---,0.00,VWS V13.01,2013-08-06 17:39:00,
2013-08-06 13:44:00,75.9,56.0,29.83,SE,135,4.0,16.0,50,0.00,,---,0.00,VWS V13.01,2013-08-06 17:44:00,
2013-08-06 13:49:00,75.9,57.6,29.83,SSE,150,12.0,16.0,53,0.00,,---,0.00,VWS V13.01,2013-08-06 17:49:00,
2013-08-06 13:54:00,75.8,55.3,29.83,South,171,2.0,16.0,49,0.00,,---,0.00,VWS V13.01,2013-08-06 17:54:00,
2013-08-06 13:59:00,76.3,56.3,29.82,ESE,123,0.0,16.0,50,0.00,,---,0.00,VWS V13.01,2013-08-06 17:59:00,
2013-08-06 14:04:00,76.8,58.4,29.82,East,88,0.0,5.0,53,0.00,,---,0.00,VWS V13.01,2013-08-06 18:04:00,
2013-08-06 14:09:00,76.9,58.0,29.82,ENE,61,0.0,5.0,52,0.00,,---,0.00,VWS V13.01,2013-08-06 18:09:00,
2013-08-06 14:14:00,77.2,58.2,29.82,ENE,63,0.0,5.0,52,0.00,,---,0.00,VWS V13.01,2013-08-06 18:14:00,
2013-08-06 14:19:00,77.6,58.1,29.82,East,89,0.0,7.0,51,0.00,,---,0.00,VWS V13.01,2013-08-06 18:19:00,
2013-08-06 14:25:00,77.0,56.4,29.82,ESE,118,0.0,8.0,49,0.00,,---,0.00,VWS V13.01,2013-08-06 18:25:00,
2013-08-06 14:30:00,77.4,57.3,29.82,ESE,117,0.0,8.0,50,0.00,,---,0.00,VWS V13.01,2013-08-06 18:30:00,
2013-08-06 14:35:00,78.2,57.5,29.82,ESE,115,2.0,4.0,49,0.00,,---,0.00,VWS V13.01,2013-08-06 18:35:00,
2013-08-06 14:40:00,78.3,59.2,29.82,SSE,165,0.0,5.0,52,0.00,,---,0.00,VWS V13.01,2013-08-06 18:40:00,
2013-08-06 14:45:00,77.3,58.8,29.82,East,87,5.0,6.0,53,0.00,,---,0.00,VWS V13.01,2013-08-06 18:45:00,
2013-08-06 14:50:00,77.4,58.4,29.82,East,86,0.0,6.0,52,0.00,,---,0.00,VWS V13.01,2013-08-06 18:50:00,
2013-08-06 14:55:00,78.2,56.9,29.82,WNW,298,0.0,7.0,48,0.00,,---,0.00,VWS V13.01,2013-08-06 18:55:00,
2013-08-06 15:00:00,78.7,56.2,29.82,West,263,4.0,6.0,46,0.00,,---,0.00,VWS V13.01,2013-08-06 19:00:00,
2013-08-06 15:05:00,78.6,59.5,29.82,SW,219,2.0,11.0,52,0.00,,---,0.00,VWS V13.01,2013-08-06 19:05:00,
2013-08-06 15:10:00,78.7,59.6,29.82,SW,234,0.0,11.0,52,0.00,,---,0.00,VWS V13.01,2013-08-06 19:10:00,
2013-08-06 15:15:00,78.9,57.6,29.82,SW,233,2.0,11.0,48,0.00,,---,0.00,VWS V13.01,2013-08-06 19:15:00,
2013-08-06 15:21:00,79.3,59.1,29.81,WSW,256,5.0,11.0,50,0.00,,---,0.00,VWS V13.01,2013-08-06 19:21:00,
2013-08-06 15:26:00,79.2,57.2,29.81,West,266,1.0,11.0,47,0.00,,---,0.00,VWS V13.01,2013-08-06 19:26:00,
2013-08-06 15:31:00,79.5,59.2,29.81,West,266,2.0,2.0,50,0.00,,---,0.00,VWS V13.01,2013-08-06 19:31:00,
2013-08-06 15:36:00,79.7,59.4,29.81,SSE,149,2.0,8.0,50,0.00,,---,0.00,VWS V13.01,2013-08-06 19:36:00,
2013-08-06 15:41:00,79.3,59.6,29.81,East,94,4.0,8.0,51,0.00,,---,0.00,VWS V13.01,2013-08-06 19:41:00,
2013-08-06 15:46:00,78.8,58.6,29.81,East,93,4.0,9.0,50,0.00,,---,0.00,VWS V13.01,2013-08-06 19:46:00,
2013-08-06 15:51:00,78.6,57.9,29.81,ESE,118,0.0,9.0,49,0.00,,---,0.00,VWS V13.01,2013-08-06 19:51:00,
2013-08-06 15:56:00,78.7,59.1,29.81,East,97,0.0,9.0,51,0.00,,---,0.00,VWS V13.01,2013-08-06 19:56:00,
2013-08-06 16:01:00,79.2,56.7,29.81,SW,227,6.0,10.0,46,0.00,,---,0.00,VWS V13.01,2013-08-06 20:01:00,
2013-08-06 16:06:00,79.2,57.2,29.81,WSW,258,0.0,10.0,47,0.00,,---,0.00,VWS V13.01,2013-08-06 20:06:00,
2013-08-06 16:12:00,79.2,60.1,29.81,SSW,210,3.0,11.0,52,0.00,,---,0.00,VWS V13.01,2013-08-06 20:12:00,
2013-08-06 16:17:00,79.6,58.8,29.81,South,188,1.0,11.0,49,0.00,,---,0.00,VWS V13.01,2013-08-06 20:17:00,
2013-08-06 16:22:00,79.8,59.5,29.81,SSW,196,0.0,11.0,50,0.00,,---,0.00,VWS V13.01,2013-08-06 20:22:00,
2013-08-06 16:27:00,80.3,58.2,29.80,ENE,72,0.0,11.0,47,0.00,,---,0.00,VWS V13.01,2013-08-06 20:27:00,
2013-08-06 16:32:00,80.4,59.5,29.81,SSE,167,0.0,4.0,49,0.00,,---,0.00,VWS V13.01,2013-08-06 20:32:00,
2013-08-06 16:33:00,80.5,59.6,29.81,South,181,6.0,11.0,49,0.00,,---,0.00,VWS V13.01,2013-08-06 20:33:00,
2013-08-06 16:38:00,80.1,57.5,29.80,SE,138,0.0,11.0,46,0.00,,---,0.00,VWS V13.01,2013-08-06 20:38:00,
2013-08-06 16:43:00,79.5,57.5,29.80,SSW,209,4.0,11.0,47,0.00,,---,0.00,VWS V13.01,2013-08-06 20:43:00,
2013-08-06 16:48:00,79.8,58.4,29.80,SW,229,1.0,11.0,48,0.00,,---,0.00,VWS V13.01,2013-08-06 20:48:00,
2013-08-06 16:53:00,79.8,58.4,29.80,SW,222,2.0,11.0,48,0.00,,---,0.00,VWS V13.01,2013-08-06 20:53:00,
2013-08-06 16:58:00,79.6,58.2,29.80,South,169,3.0,11.0,48,0.00,,---,0.00,VWS V13.01,2013-08-06 20:58:00,
2013-08-06 17:03:00,79.1,57.8,29.80,South,190,5.0,7.0,48,0.00,,---,0.00,VWS V13.01,2013-08-06 21:03:00,
2013-08-06 17:08:00,78.7,58.0,29.80,SE,146,2.0,9.0,49,0.00,,---,0.00,VWS V13.01,2013-08-06 21:08:00,
2013-08-06 17:14:00,78.7,56.8,29.79,South,186,1.0,9.0,47,0.00,,---,0.00,VWS V13.01,2013-08-06 21:14:00,
2013-08-06 17:19:00,78.9,59.2,29.79,South,191,5.0,9.0,51,0.00,,---,0.00,VWS V13.01,2013-08-06 21:19:00,
2013-08-06 17:24:00,78.9,58.1,29.79,SW,234,1.0,9.0,49,0.00,,---,0.00,VWS V13.01,2013-08-06 21:24:00,
2013-08-06 17:29:00,79.0,59.3,29.79,WSW,240,5.0,9.0,51,0.00,,---,0.00,VWS V13.01,2013-08-06 21:29:00,
2013-08-06 17:34:00,79.1,57.8,29.79,SSW,198,0.0,11.0,48,0.00,,---,0.00,VWS V13.01,2013-08-06 21:34:00,
2013-08-06 17:39:00,79.3,57.9,29.78,WSW,251,0.0,11.0,48,0.00,,---,0.00,VWS V13.01,2013-08-06 21:39:00,
2013-08-06 17:44:00,79.2,58.4,29.78,SSW,209,1.0,11.0,49,0.00,,---,0.00,VWS V13.01,2013-08-06 21:44:00,
2013-08-06 17:49:00,78.8,57.5,29.78,WSW,241,4.0,11.0,48,0.00,,---,0.00,VWS V13.01,2013-08-06 21:49:00,
2013-08-06 17:54:00,78.7,58.5,29.77,ENE,78,0.0,11.0,50,0.00,,---,0.00,VWS V13.01,2013-08-06 21:54:00,
2013-08-06 17:59:00,78.7,58.5,29.77,WSW,241,4.0,11.0,50,0.00,,---,0.00,VWS V13.01,2013-08-06 21:59:00,
2013-08-06 18:05:00,78.5,59.4,29.77,WSW,240,4.0,10.0,52,0.00,,---,0.00,VWS V13.01,2013-08-06 22:05:00,
2013-08-06 18:10:00,78.6,58.4,29.77,WSW,244,0.0,10.0,50,0.00,,---,0.00,VWS V13.01,2013-08-06 22:10:00,
2013-08-06 18:15:00,78.9,59.8,29.77,SW,236,2.0,10.0,52,0.00,,---,0.00,VWS V13.01,2013-08-06 22:15:00,
2013-08-06 18:20:00,78.3,57.6,29.78,WSW,249,2.0,10.0,49,0.00,,---,0.00,VWS V13.01,2013-08-06 22:20:00,
2013-08-06 18:25:00,77.8,58.2,29.78,WSW,246,0.0,10.0,51,0.00,,---,0.00,VWS V13.01,2013-08-06 22:25:00,
2013-08-06 18:30:00,77.9,58.3,29.78,WSW,246,0.0,0.0,51,0.00,,---,0.00,VWS V13.01,2013-08-06 22:30:00,
2013-08-06 18:35:00,77.8,58.2,29.78,WSW,244,0.0,3.0,51,0.00,,---,0.00,VWS V13.01,2013-08-06 22:35:00,
2013-08-06 18:40:00,77.7,59.2,29.78,WSW,244,0.0,3.0,53,0.00,,---,0.00,VWS V13.01,2013-08-06 22:40:00,
2013-08-06 18:45:00,77.5,58.5,29.78,SW,229,0.0,7.0,52,0.00,,---,0.00,VWS V13.01,2013-08-06 22:45:00,
2013-08-06 18:50:00,76.7,60.3,29.78,SW,230,0.0,7.0,57,0.00,,---,0.00,VWS V13.01,2013-08-06 22:50:00,
2013-08-06 18:55:00,76.0,61.1,29.78,SW,233,0.0,7.0,60,0.00,,---,0.00,VWS V13.01,2013-08-06 22:55:00,
2013-08-06 19:01:00,75.4,58.1,29.78,SW,233,1.0,1.0,55,0.00,,---,0.00,VWS V13.01,2013-08-06 23:01:00,
2013-08-06 19:06:00,74.4,61.9,29.78,SW,233,0.0,1.0,65,0.00,,---,0.00,VWS V13.01,2013-08-06 23:06:00,
2013-08-06 19:11:00,72.9,61.7,29.78,SW,233,0.0,1.0,68,0.00,,---,0.00,VWS V13.01,2013-08-06 23:11:00,
2013-08-06 19:16:00,71.8,61.5,29.78,SW,233,0.0,1.0,70,0.00,,---,0.00,VWS V13.01,2013-08-06 23:16:00,
2013-08-06 19:21:00,71.3,61.8,29.78,SW,233,0.0,1.0,72,0.00,,---,0.00,VWS V13.01,2013-08-06 23:21:00,
2013-08-06 19:26:00,71.0,61.5,29.78,SW,233,0.0,1.0,72,0.00,,---,0.00,VWS V13.01,2013-08-06 23:26:00,
2013-08-06 19:31:00,70.6,62.3,29.78,SW,233,0.0,0.0,75,0.00,,---,0.00,VWS V13.01,2013-08-06 23:31:00,
2013-08-06 19:36:00,70.4,61.7,29.78,SW,233,0.0,0.0,74,0.00,,---,0.00,VWS V13.01,2013-08-06 23:36:00,
2013-08-06 19:41:00,70.2,61.5,29.79,SW,233,0.0,0.0,74,0.00,,---,0.00,VWS V13.01,2013-08-06 23:41:00,
2013-08-06 19:46:00,70.0,61.7,29.79,SW,232,0.0,0.0,75,0.00,,---,0.00,VWS V13.01,2013-08-06 23:46:00,
2013-08-06 19:52:00,69.7,60.7,29.79,SW,232,0.0,0.0,73,0.00,,---,0.00,VWS V13.01,2013-08-06 23:52:00,
2013-08-06 19:57:00,69.5,61.2,29.78,SW,233,0.0,0.0,75,0.00,,---,0.00,VWS V13.01,2013-08-06 23:57:00,
2013-08-06 20:02:00,69.4,61.9,29.78,SW,233,0.0,0.0,77,0.00,,---,0.00,VWS V13.01,2013-08-07 00:02:00,
2013-08-06 20:07:00,69.6,62.8,29.78,SW,232,0.0,0.0,79,0.00,,---,0.00,VWS V13.01,2013-08-07 00:07:00,
2013-08-06 20:12:00,69.5,63.4,29.78,SW,233,0.0,0.0,81,0.00,,---,0.00,VWS V13.01,2013-08-07 00:12:00,
2013-08-06 20:17:00,69.0,62.2,29.78,SW,233,0.0,0.0,79,0.00,,---,0.00,VWS V13.01,2013-08-07 00:17:00,
2013-08-06 20:22:00,68.6,61.8,29.78,SW,232,0.0,0.0,79,0.00,,---,0.00,VWS V13.01,2013-08-07 00:22:00,
2013-08-06 20:27:00,68.5,61.7,29.79,SW,233,0.0,0.0,79,0.00,,---,0.00,VWS V13.01,2013-08-07 00:27:00,
2013-08-06 20:32:00,68.4,62.0,29.79,SW,232,0.0,0.0,80,0.00,,---,0.00,VWS V13.01,2013-08-07 00:32:00,
2013-08-06 20:37:00,68.4,63.4,29.79,SW,233,0.0,0.0,84,0.00,,---,0.00,VWS V13.01,2013-08-07 00:37:00,
2013-08-06 20:42:00,68.2,63.2,29.79,SW,233,0.0,0.0,84,0.00,,---,0.00,VWS V13.01,2013-08-07 00:42:00,
2013-08-06 20:48:00,67.6,62.6,29.79,SW,232,0.0,0.0,84,0.00,,---,0.00,VWS V13.01,2013-08-07 00:48:00,
2013-08-06 20:53:00,67.0,62.7,29.79,SW,233,0.0,0.0,86,0.00,,---,0.00,VWS V13.01,2013-08-07 00:53:00,
2013-08-06 20:58:00,66.6,62.6,29.79,SW,233,0.0,0.0,87,0.00,,---,0.00,VWS V13.01,2013-08-07 00:58:00,
2013-08-06 21:03:00,66.3,62.0,29.80,SW,233,0.0,0.0,86,0.00,,---,0.00,VWS V13.01,2013-08-07 01:03:00,
2013-08-06 21:08:00,66.2,61.2,29.80,SW,233,0.0,0.0,84,0.00,,---,0.00,VWS V13.01,2013-08-07 01:08:00,
2013-08-06 21:13:00,66.3,62.0,29.80,SW,233,0.0,0.0,86,0.00,,---,0.00,VWS V13.01,2013-08-07 01:13:00,
2013-08-06 21:18:00,66.3,61.7,29.80,SW,232,0.0,0.0,85,0.00,,---,0.00,VWS V13.01,2013-08-07 01:18:00,
2013-08-06 21:23:00,66.1,62.1,29.80,SW,232,0.0,0.0,87,0.00,,---,0.00,VWS V13.01,2013-08-07 01:23:00,
2013-08-06 21:28:00,65.7,62.0,29.80,SW,233,0.0,0.0,88,0.00,,---,0.00,VWS V13.01,2013-08-07 01:28:00,
2013-08-06 21:33:00,65.4,62.1,29.80,SW,233,0.0,0.0,89,0.00,,---,0.00,VWS V13.01,2013-08-07 01:33:00,
2013-08-06 21:38:00,65.1,61.8,29.80,SW,232,0.0,0.0,89,0.00,,---,0.00,VWS V13.01,2013-08-07 01:38:00,
2013-08-06 21:44:00,64.8,61.5,29.80,SW,233,0.0,0.0,89,0.00,,---,0.00,VWS V13.01,2013-08-07 01:44:00,
2013-08-06 21:49:00,64.6,61.3,29.80,SW,233,0.0,0.0,89,0.00,,---,0.00,VWS V13.01,2013-08-07 01:49:00,
2013-08-06 21:54:00,64.3,61.0,29.80,SW,233,0.0,1.0,89,0.00,,---,0.00,VWS V13.01,2013-08-07 01:54:00,
2013-08-06 21:59:00,64.1,61.1,29.80,SW,233,0.0,1.0,90,0.00,,---,0.00,VWS V13.01,2013-08-07 01:59:00,
2013-08-06 22:04:00,64.0,61.0,29.79,SW,232,0.0,0.0,90,0.00,,---,0.00,VWS V13.01,2013-08-07 02:04:00,
2013-08-06 22:09:00,63.8,60.8,29.79,SW,232,0.0,0.0,90,0.00,,---,0.00,VWS V13.01,2013-08-07 02:09:00,
2013-08-06 22:14:00,63.5,60.2,29.79,SW,233,0.0,1.0,89,0.00,,---,0.00,VWS V13.01,2013-08-07 02:14:00,
2013-08-06 22:19:00,63.2,60.2,29.79,SW,232,0.0,1.0,90,0.00,,---,0.00,VWS V13.01,2013-08-07 02:19:00,
2013-08-06 22:24:00,62.9,59.9,29.79,SW,233,0.0,1.0,90,0.00,,---,0.00,VWS V13.01,2013-08-07 02:24:00,
2013-08-06 22:29:00,62.5,59.5,29.79,SW,232,0.0,1.0,90,0.00,,---,0.00,VWS V13.01,2013-08-07 02:29:00,
2013-08-06 22:34:00,61.9,58.9,29.79,SW,232,0.0,0.0,90,0.00,,---,0.00,VWS V13.01,2013-08-07 02:34:00,
2013-08-06 22:40:00,61.6,59.0,29.79,SW,233,0.0,1.0,91,0.00,,---,0.00,VWS V13.01,2013-08-07 02:40:00,
2013-08-06 22:45:00,61.4,58.8,29.79,SW,232,0.0,1.0,91,0.00,,---,0.00,VWS V13.01,2013-08-07 02:45:00,
2013-08-06 22:50:00,61.4,58.8,29.79,SW,232,0.0,1.0,91,0.00,,---,0.00,VWS V13.01,2013-08-07 02:50:00,
2013-08-06 22:55:00,61.3,58.7,29.80,SW,232,0.0,1.0,91,0.00,,---,0.00,VWS V13.01,2013-08-07 02:55:00,
2013-08-06 23:00:00,61.2,58.6,29.80,SW,232,0.0,1.0,91,0.00,,---,0.00,VWS V13.01,2013-08-07 03:00:00,
2013-08-06 23:05:00,61.0,58.7,29.80,SW,232,0.0,0.0,92,0.00,,---,0.00,VWS V13.01,2013-08-07 03:05:00,
2013-08-06 23:10:00,60.6,58.3,29.80,SW,233,0.0,0.0,92,0.00,,---,0.00,VWS V13.01,2013-08-07 03:10:00,
2013-08-06 23:15:00,60.4,58.1,29.80,SW,232,0.0,0.0,92,0.00,,---,0.00,VWS V13.01,2013-08-07 03:15:00,
2013-08-06 23:20:00,60.2,57.9,29.80,SW,232,0.0,0.0,92,0.00,,---,0.00,VWS V13.01,2013-08-07 03:20:00,
2013-08-06 23:26:00,59.6,57.3,29.80,SW,232,0.0,1.0,92,0.00,,---,0.00,VWS V13.01,2013-08-07 03:26:00,
2013-08-06 23:31:00,59.1,57.1,29.80,SW,232,0.0,0.0,93,0.00,,---,0.00,VWS V13.01,2013-08-07 03:31:00,
2013-08-06 23:36:00,59.0,57.0,29.80,SW,233,0.0,0.0,93,0.00,,---,0.00,VWS V13.01,2013-08-07 03:36:00,
2013-08-06 23:41:00,59.0,57.0,29.80,SW,232,0.0,0.0,93,0.00,,---,0.00,VWS V13.01,2013-08-07 03:41:00,
2013-08-06 23:46:00,59.0,57.3,29.79,SW,232,0.0,0.0,94,0.00,,---,0.00,VWS V13.01,2013-08-07 03:46:00,
2013-08-06 23:51:00,59.0,57.3,29.79,SW,232,0.0,0.0,94,0.00,,---,0.00,VWS V13.01,2013-08-07 03:51:00,
2013-08-06 23:55:00,59.0,57.3,29.79,SW,232,0.0,0.0,94,0.00,,---,0.00,VWS V13.01,2013-08-07 03:55:00,